Starlink 31747

operational
NORAD ID: 59564 Int'l Des: 2024-076 Owner: SPXS Country: US Constellation: starlink
LEOCIRCULAR

Starlink 31747について

説明を読み込み中...

リアルタイム位置

3D地球を読み込み中...

次回通過

高度履歴

Altitude vs Time

uPlot chart will show altitude changes over time

軌道要素

1 59564U 24076A 25353.25510600 .00001992 00000-0 81908-4 0 9996
2 59564 42.9983 92.6693 0000579 259.8019 100.2767 15.27567964 94318
Epoch: Dec 19, 2025 • Age: 19 hours

現在のステータス

高度 486.5 km
速度 7.62 km/s
衛星直下点 -17.28°S, 32.61°W
打ち上げ日 Apr 23, 2024
運用期間 1.6 years
タイプ internet

技術仕様

分類 Payload
質量 730.00 kg
乾燥質量 700.00 kg
総質量 730.00 kg
長さ 0.30 m
直径 4.10 m
スパン 29.00 m
形状 Box + pan
製造者 SPXS
バスタイプ Starlink V2M
フェーズステータス In Orbit
所有者/国 SPXS/US

大規模コンステレーション

Loading constellations...